User: anonymous   Login
Location: Newark
(36.6333°N, 138.1833°E)
Time: 09:13:03
(UTC+00:00)
Language:

VELOX 1 - Orbit

View from above orbital plane
View from above orbital plane
View from above satellite
View from above satellite

Ground track
Ground track

The orbit data is extracted from the following two-line orbital elements,

1 40057U 14034E   20157.85542302  .00000285  00000-0  47221-4 0  9997
2 40057  98.2776 294.5034 0011096 175.6573 184.4731 14.77872308319924
Epoch (UTC): 05 June 2020 20:31:48
Eccentricity: 0.0011096
inclination: 98.2776°
perigee height: 628 km
apogee height: 644 km
right ascension of ascending node: 294.5034°
argument of perigee: 175.6573°
revolutions per day: 14.77872308
mean anomaly at epoch: 184.4731°
orbit number at epoch: 31992

The dashed part of the orbit path shows where the satellite is in the earth's shadow,  

DLR